Location: Baia Mare
(47.6567°N, 23.5850°E)
Time: 15:12:57
(UTC+03:00)

ISS - Pass Details

Date: 12 May 2018
Orbit: 402 x 407 km, 51.6° (Epoch: 25 May)

Event Time Altitude Azimuth Distance (km) Brightness Sun altitude
Exits shadow 03:13:27 76° 107° (ESE) 419 -3.9 -19.7°
Drops below altitude 10° 03:16:32 10° 67° (ENE) 1,458 -0.3 -19.4°
Sets 03:18:37 0° 67° (ENE) 2,320 0.9 -19.3°
